User: anonymous   Login
Location: Unspecified
(0.0000°N, 0.0000°E)
Time: 01:40:30
(UTC+00:00)
Language:

NOSS 3-1 (A) - Orbit

View from above orbital plane
View from above orbital plane
View from above satellite
View from above satellite

Ground track
Ground track

The orbit data is extracted from the following two-line orbital elements,

1 26905U 01040A   19133.88752929 0.00000000  00000-0  00000-0 0    07
2 26905  63.4095  56.2155 0438372 359.6460   0.3540 13.40771864    08
Epoch (UTC): 13 May 2019 21:18:02
Eccentricity: 0.0438372
inclination: 63.4095°
perigee height: 778 km
apogee height: 1434 km
right ascension of ascending node: 56.2155°
argument of perigee: 359.6460°
revolutions per day: 13.40771864
mean anomaly at epoch: 0.3540°
orbit number at epoch: 0

The dashed part of the orbit path shows where the satellite is in the earth's shadow,  

DLR